(247070) = 2000 RN80

Discovered at Socorro on 2000-09-01 by LINEAR.

Orbit

Orbit type: Main Belt

Note: WebGL enabled browser required.

epoch2023-09-13.0
epoch JD2460200.5
perihelion date2023-06-17.64206
perihelion JD2460113.14206
argument of perihelion (°)31.73452
ascending node (°)319.78874
inclination (°)13.15504
eccentricity0.1513156
perihelion distance (AU)2.7026524
Tisserand w.r.t. Jupiter3.1
ΔV w.r.t. Earth (km/sec)11.0
semimajor axis (AU)3.1845201
mean anomaly (°)15.15096
mean daily motion (°/day)0.17343540
aphelion distance (AU)3.666
period (years)5.68
P-vector [x]0.98016447
P-vector [y]-0.19253194
P-vector [z]0.04700066
Q-vector [x]0.13299867
Q-vector [y]0.81482725
Q-vector [z]0.56424100
absolute magnitude15.38
phase slope0.15
uncertainty0
referenceMPEC 2024-A124
observations used432
oppositions14
arc length (days)8531
first opposition used2000
last opposition used2024
residual rms (arc-secs)0.62
perturbers coarse indicatorM-v
perturbers precise indicator003Ek
first observation date used2000-09-01.0
last observation date used2024-01-10.0
computer nameMPCLINUX
JD of orbit computation2456731.444413
perihelion JD uncertainty (days)2.7707E-04
argument of perihelion uncertainty (°)6.0898E-05
ascending node uncertainty (°)3.4712E-05
inclination uncertainty (°)1.2079E-05
eccentricity uncertainty 1.1154E-07
perihelion distance uncertainty (AU)3.8697E-07
Minimum Orbit Intersection Distances (in AU)
for orbit epoch: 2460200.5, reference: E2024-AC4
Mercury2.32913
Venus1.98957
Earth1.70457
Mars1.34433
Jupiter1.76614
Saturn5.64447
Uranus14.8119
Neptune26.8275

Observations

438 total observations over interval: 2000 09 01.25946 – 2024 01 10.089651
These data are available for download (format description).

Date (UT) J2000 RA J2000 Dec Magn Location Ref
2000 09 01.25946 23 36 34.24 +08 54 31.8 18.7   704 – Lincoln Laboratory ETS, New Mexico MPS 19638
2000 09 01.27306 23 36 33.68 +08 54 32.3 19.2   704 – Lincoln Laboratory ETS, New Mexico MPS 19638
2000 09 01.28632 23 36 32.95 +08 54 33.3 19.4   704 – Lincoln Laboratory ETS, New Mexico MPS 19638
2000 09 01.29951 23 36 32.29 +08 54 33.4 19.4   704 – Lincoln Laboratory ETS, New Mexico MPS 19638
2000 09 01.31270 23 36 31.66 +08 54 34.3 19.0   704 – Lincoln Laboratory ETS, New Mexico MPS 19638
2000 09 05.32399 23 33 16.59 +08 56 40.0 19.0 R 699 – Lowell Observatory-LONEOS MPS 19638
2000 09 05.33776 23 33 15.77 +08 56 39.2   699 – Lowell Observatory-LONEOS MPS 19638
2000 09 05.35159 23 33 15.10 +08 56 39.0   699 – Lowell Observatory-LONEOS MPS 19638
2000 09 05.36543 23 33 14.41 +08 56 39.6   699 – Lowell Observatory-LONEOS MPS 19638
2000 09 23.26682 23 18 01.26 +08 39 37.1 18.7 R 699 – Lowell Observatory-LONEOS MPS 30114
2000 09 23.26809 23 18 01.12 +08 39 38.0 19.2   704 – Lincoln Laboratory ETS, New Mexico MPS 19638
2000 09 23.28232 23 18 00.45 +08 39 36.1   699 – Lowell Observatory-LONEOS MPS 30114
2000 09 23.28255 23 18 00.43 +08 39 36.2 18.9   704 – Lincoln Laboratory ETS, New Mexico MPS 19638
2000 09 23.29702 23 17 59.80 +08 39 34.9 18.7   704 – Lincoln Laboratory ETS, New Mexico MPS 19638
2000 09 23.29775 23 17 59.66 +08 39 34.2   699 – Lowell Observatory-LONEOS MPS 30114
2000 09 23.31143 23 17 58.94 +08 39 33.1 19.0   704 – Lincoln Laboratory ETS, New Mexico MPS 19638
2000 09 23.31319 23 17 58.87 +08 39 31.6   699 – Lowell Observatory-LONEOS MPS 30114
2006 09 17.36699 01 30 55.29 +26 59 32.0 19.5 V 703 – Catalina Sky Survey MPS 197976
2006 09 17.37668 01 30 54.93 +26 59 33.6 20.1 V 703 – Catalina Sky Survey MPS 197976
2006 09 17.38638 01 30 54.61 +26 59 35.3 19.5 V 703 – Catalina Sky Survey MPS 197976
2006 09 17.39612 01 30 54.18 +26 59 38.0 19.2 V 703 – Catalina Sky Survey MPS 197976
2006 09 28.34327 01 23 19.46 +27 22 59.9 19.8 V 703 – Catalina Sky Survey MPS 197976
2006 09 28.35058 01 23 19.14 +27 22 59.5 19.7 V 703 – Catalina Sky Survey MPS 197976
2006 09 28.35790 01 23 18.81 +27 23 00.9 19.6 V 703 – Catalina Sky Survey MPS 197976
2006 09 28.36515 01 23 18.45 +27 23 00.9 19.8 V 703 – Catalina Sky Survey MPS 197976
2006 10 19.25716 01 05 10.14 +26 54 58.1 19.2 V 703 – Catalina Sky Survey MPS 197976
2006 10 19.26574 01 05 09.67 +26 54 56.1 19.1 V 703 – Catalina Sky Survey MPS 197976
2006 10 19.27432 01 05 09.16 +26 54 54.3 19.1 V 703 – Catalina Sky Survey MPS 197976
2006 10 19.28294 01 05 08.73 +26 54 52.1 19.0 V 703 – Catalina Sky Survey MPS 197976
2006 10 19.29531 01 05 08.01 +26 54 50.5 19.1 V 703 – Catalina Sky Survey MPS 197976
2006 10 19.30550 01 05 07.44 +26 54 48.6 19.1 V 703 – Catalina Sky Survey MPS 197976
2006 10 19.33867 01 05 05.60 +26 54 40.8 19.2 V 703 – Catalina Sky Survey MPS 197976
2006 10 19.34984 01 05 05.06 +26 54 38.6 19.3 V 703 – Catalina Sky Survey MPS 197976
2006 10 19.36104 01 05 04.45 +26 54 36.7 19.4 V 703 – Catalina Sky Survey MPS 197976
2006 10 19.37218 01 05 03.87 +26 54 34.2 19.5 V 703 – Catalina Sky Survey MPS 197976
2006 10 27.22999 00 58 30.82 +26 22 43.5 19.1 V 703 – Catalina Sky Survey MPS 197976
2006 10 27.23647 00 58 30.50 +26 22 42.0 19.5 V 703 – Catalina Sky Survey MPS 197976
2006 10 27.24296 00 58 30.21 +26 22 40.7 19.3 V 703 – Catalina Sky Survey MPS 197976
2006 10 27.24946 00 58 29.82 +26 22 38.8 19.5 V 703 – Catalina Sky Survey MPS 197976
2007 12 18.32182 07 59 02.36 +30 39 41.9 20.8 V G96 – Mt. Lemmon Survey MPS 231705
2007 12 18.32755 07 59 02.11 +30 39 42.5 20.6 V G96 – Mt. Lemmon Survey MPS 231705
2007 12 18.33314 07 59 01.89 +30 39 42.9 20.6 V G96 – Mt. Lemmon Survey MPS 231705
2007 12 18.33873 07 59 01.64 +30 39 43.2 20.4 V G96 – Mt. Lemmon Survey MPS 231705
2008 01 01.38170 07 47 19.35 +30 50 33.4 20.5 V G96 – Mt. Lemmon Survey MPS 286841
2008 01 01.38991 07 47 18.88 +30 50 33.9 19.6 V G96 – Mt. Lemmon Survey MPS 286841
2008 01 01.39811 07 47 18.45 +30 50 33.5 20.1 V G96 – Mt. Lemmon Survey MPS 286841
2008 01 01.40633 07 47 17.98 +30 50 33.6 20.3 V G96 – Mt. Lemmon Survey MPS 286841
2010 02 10.564253 14 58 57.51 -30 45 08.6   C51 – WISE MPS 312940
2010 02 10.696558 14 59 02.11 -30 46 00.0   C51 – WISE MPS 312940
2010 02 10.828862 14 59 06.68 -30 46 50.8   C51 – WISE MPS 333434
2010 02 10.961167 14 59 11.16 -30 47 42.1   C51 – WISE MPS 312940
2010 02 11.027382 14 59 13.35 -30 48 07.5   C51 – WISE MPS 333434
2010 02 11.093470 14 59 15.66 -30 48 33.9   C51 – WISE MPS 312940
2010 02 11.093597 14 59 15.58 -30 48 34.4   C51 – WISE MPS 312940
2010 02 11.159686 14 59 17.91 -30 48 59.2   C51 – WISE MPS 312940
2010 07 30.477171 14 20 10.94 -28 46 39.7   C51 – WISE MPS 341616
2010 07 30.609476 14 20 16.19 -28 46 27.9   C51 – WISE MPS 341616
2010 07 31.006387 14 20 32.36 -28 45 56.3   C51 – WISE MPS 341616
2010 07 31.072476 14 20 35.02 -28 45 51.3   C51 – WISE MPS 341616
2010 07 31.138691 14 20 37.74 -28 45 46.5   C51 – WISE MPS 341616
2010 07 31.204779 14 20 40.42 -28 45 41.7   C51 – WISE MPS 341616
2010 07 31.270994 14 20 43.13 -28 45 35.8   C51 – WISE MPS 341616
2010 07 31.337082 14 20 45.73 -28 45 30.5   C51 – WISE MPS 341616
2010 07 31.469387 14 20 51.28 -28 45 20.8   C51 – WISE MPS 341616
2010 07 31.601690 14 20 56.73 -28 45 10.9   C51 – WISE MPS 341616
2011 07 26.44083 21 01 21.824 -21 16 06.77 19.3 w F51 – Pan-STARRS 1, Haleakala MPS 387748
2011 07 26.45456 21 01 21.060 -21 16 06.29 19.3 w F51 – Pan-STARRS 1, Haleakala MPS 387748
2011 07 26.46832 21 01 20.295 -21 16 05.71 19.3 w F51 – Pan-STARRS 1, Haleakala MPS 387748
2011 07 26.48210 21 01 19.526 -21 16 05.17 19.3 w F51 – Pan-STARRS 1, Haleakala MPS 387748
2011 08 01.42765 20 55 53.208 -21 11 23.29 19.3 g F51 – Pan-STARRS 1, Haleakala MPS 388585
2011 08 01.43973 20 55 52.514 -21 11 22.58 19.4 g F51 – Pan-STARRS 1, Haleakala MPS 388585
2011 08 28.18687 20 33 12.63 -20 24 54.6 19.5 R H15 – ISON-NM Observatory, Mayhill MPS 390411
2011 08 28.20055 20 33 12.09 -20 24 51.5 19.5 R H15 – ISON-NM Observatory, Mayhill MPS 390411
2011 08 28.21409 20 33 11.57 -20 24 49.7 19.5 R H15 – ISON-NM Observatory, Mayhill MPS 390411
2011 08 28.22761 20 33 10.90 -20 24 46.4 19.5 R H15 – ISON-NM Observatory, Mayhill MPS 390411
2012 11 07.39242 03 22 58.72 +38 40 10.6 19.5 R 926 – Tenagra II Observatory, Nogales MPS 441415
2012 11 07.40632 03 22 57.86 +38 40 08.8 19.6 R 926 – Tenagra II Observatory, Nogales MPS 441415
2012 11 07.41844 03 22 57.18 +38 40 06.8 19.4 R 926 – Tenagra II Observatory, Nogales MPS 441415
2013 12 27.51412 09 17 44.36 +20 24 37.4 20.8 V 691 – Steward Observatory, Kitt Peak-Spacewatch MPS 493220
2013 12 27.53190 09 17 43.81 +20 24 37.7 20.9 V 691 – Steward Observatory, Kitt Peak-Spacewatch MPS 493220
2013 12 27.54967 09 17 43.23 +20 24 38.6 20.8 V 691 – Steward Observatory, Kitt Peak-Spacewatch MPS 493220
2013 12 31.41435 09 15 39.61 +20 27 16.0 20.6 V 691 – Steward Observatory, Kitt Peak-Spacewatch MPS 495031
2013 12 31.43214 09 15 39.00 +20 27 16.6 21.0 V 691 – Steward Observatory, Kitt Peak-Spacewatch MPS 495031
2013 12 31.44991 09 15 38.35 +20 27 17.2 21.1 V 691 – Steward Observatory, Kitt Peak-Spacewatch MPS 495031
2014 02 05.26986 08 46 55.16 +21 00 23.0 20.3 V G96 – Mt. Lemmon Survey MPS 500876
2014 02 05.27683 08 46 54.76 +21 00 23.0 20.3 V G96 – Mt. Lemmon Survey MPS 500876
2014 02 05.28382 08 46 54.39 +21 00 24.0 19.9 V G96 – Mt. Lemmon Survey MPS 500876
2014 02 05.29075 08 46 53.99 +21 00 23.7 20.5 V G96 – Mt. Lemmon Survey MPS 500876
2014 02 23.26169 08 32 39.197 +20 59 35.42 20.6 w F51 – Pan-STARRS 1, Haleakala MPS 503730
2014 02 23.27424 08 32 38.674 +20 59 34.86 20.7 w F51 – Pan-STARRS 1, Haleakala MPS 503730
2014 02 23.28679 08 32 38.142 +20 59 34.51 20.7 w F51 – Pan-STARRS 1, Haleakala MPS 503730
2014 02 23.29944 08 32 37.628 +20 59 34.07 20.6 w F51 – Pan-STARRS 1, Haleakala MPS 503730
2015 01 20.59715 12 26 51.876 -12 41 17.51 21.6 w F51 – Pan-STARRS 1, Haleakala MPS 566601
2015 01 20.60846 12 26 51.900 -12 41 20.74 21.5 w F51 – Pan-STARRS 1, Haleakala MPS 566601
2015 01 20.61707 12 26 51.923 -12 41 23.17 21.6 w F51 – Pan-STARRS 1, Haleakala MPS 566601
